NKS406 KMSY-KFLL

Flight info

Callsign NKS406
Flight time 1h 22m
Altitude 37000
Route BLVNS Y290 DOWRY TEEKY4
Aircraft A320/M-SDE3FGHIRWY/LB1

Departure

Time 2026-05-03 21:13
Airport Louis Armstrong New Orleans International Airport (KMSY)

Arrival

Time 2026-05-03 22:36
Airport Fort Lauderdale Hollywood International Airport (KFLL)
Time Latitude Longitude Altitude Speed Heading
2026-05-03 20:27 29.99360 -90.25301 7 ft 0 kts 261°
2026-05-03 20:57 29.99362 -90.25288 7 ft 4 kts 261°
2026-05-03 20:57 29.99365 -90.25260 7 ft 2 kts 261°
2026-05-03 20:58 29.99371 -90.25236 10 ft 4 kts 222°
2026-05-03 20:58 29.99390 -90.25230 12 ft 4 kts 172°
2026-05-03 20:58 29.99403 -90.25232 11 ft 2 kts 172°
2026-05-03 21:02 29.99386 -90.25229 11 ft 5 kts 172°
2026-05-03 21:03 29.99348 -90.25224 10 ft 5 kts 176°
2026-05-03 21:03 29.99302 -90.25228 9 ft 8 kts 195°
2026-05-03 21:03 29.99244 -90.25271 8 ft 12 kts 225°
2026-05-03 21:03 29.99205 -90.25370 8 ft 15 kts 255°
2026-05-03 21:04 29.99205 -90.25497 7 ft 17 kts 274°
2026-05-03 21:04 29.99205 -90.25646 4 ft 18 kts 272°
2026-05-03 21:04 29.99231 -90.25796 4 ft 18 kts 287°
2026-05-03 21:04 29.99329 -90.25883 3 ft 19 kts 314°
2026-05-03 21:05 29.99374 -90.26034 4 ft 21 kts 285°
2026-05-03 21:05 29.99412 -90.26195 7 ft 21 kts 285°
2026-05-03 21:05 29.99453 -90.26360 8 ft 22 kts 286°
2026-05-03 21:05 29.99494 -90.26533 10 ft 23 kts 285°
2026-05-03 21:06 29.99538 -90.26714 12 ft 24 kts 286°
2026-05-03 21:06 29.99586 -90.26907 12 ft 25 kts 285°
2026-05-03 21:06 29.99636 -90.27114 8 ft 29 kts 285°
2026-05-03 21:06 29.99690 -90.27345 5 ft 31 kts 284°
2026-05-03 21:07 29.99733 -90.27520 4 ft 18 kts 285°
2026-05-03 21:07 29.99723 -90.27655 4 ft 17 kts 222°
2026-05-03 21:07 29.99625 -90.27694 1 ft 16 kts 194°
2026-05-03 21:07 29.99534 -90.27771 1 ft 17 kts 212°
2026-05-03 21:08 29.99468 -90.27872 3 ft 18 kts 277°
2026-05-03 21:08 29.99499 -90.28012 6 ft 18 kts 285°
2026-05-03 21:08 29.99531 -90.28135 7 ft 13 kts 292°
2026-05-03 21:08 29.99560 -90.28172 7 ft 1 kts 329°
2026-05-03 21:09 29.99561 -90.28173 7 ft 0 kts 330°
2026-05-03 21:09 29.99568 -90.28176 7 ft 3 kts 339°
2026-05-03 21:09 29.99620 -90.28171 7 ft 12 kts 19°
2026-05-03 21:09 29.99649 -90.28106 6 ft 3 kts 104°
2026-05-03 21:10 29.99649 -90.28105 6 ft 0 kts 104°
2026-05-03 21:12 29.99648 -90.28103 6 ft 7 kts 104°
2026-05-03 21:12 29.99565 -90.27740 1 ft 84 kts 105°
2026-05-03 21:13 29.99354 -90.26861 10 ft 140 kts 107°
2026-05-03 21:13 29.99014 -90.25648 220 ft 165 kts 108°
2026-05-03 21:13 29.98671 -90.24413 921 ft 160 kts 107°
2026-05-03 21:13 29.98337 -90.23201 1611 ft 157 kts 106°
2026-05-03 21:14 29.98010 -90.22010 2301 ft 155 kts 106°
2026-05-03 21:14 29.97686 -90.20836 2963 ft 153 kts 105°
2026-05-03 21:14 29.97353 -90.19673 3560 ft 156 kts 109°
2026-05-03 21:14 29.96816 -90.18517 3973 ft 174 kts 123°
2026-05-03 21:15 29.95913 -90.17425 4275 ft 202 kts 141°
2026-05-03 21:15 29.94747 -90.16373 4622 ft 224 kts 139°
2026-05-03 21:15 29.93493 -90.15182 5037 ft 245 kts 138°
2026-05-03 21:15 29.92174 -90.13795 5524 ft 267 kts 130°
2026-05-03 21:16 29.90941 -90.12140 6382 ft 276 kts 128°
2026-05-03 21:16 29.89710 -90.10413 7302 ft 282 kts 128°
2026-05-03 21:16 29.88465 -90.08640 8174 ft 288 kts 128°
2026-05-03 21:16 29.87189 -90.06824 9032 ft 295 kts 128°
2026-05-03 21:17 29.85877 -90.04967 9802 ft 302 kts 128°
2026-05-03 21:17 29.84989 -90.03716 10213 ft 311 kts 128°
2026-05-03 21:17 29.83062 -90.01015 10550 ft 342 kts 129°
2026-05-03 21:17 29.81505 -89.98841 10885 ft 359 kts 129°
2026-05-03 21:18 29.79902 -89.96606 11511 ft 365 kts 129°
2026-05-03 21:18 29.78276 -89.94339 12168 ft 370 kts 130°
2026-05-03 21:18 29.76628 -89.92039 12826 ft 374 kts 130°
2026-05-03 21:18 29.74959 -89.89711 13472 ft 379 kts 130°
2026-05-03 21:19 29.73269 -89.87361 14107 ft 384 kts 130°
2026-05-03 21:19 29.71557 -89.84982 14696 ft 388 kts 131°
2026-05-03 21:19 29.69855 -89.82613 15281 ft 391 kts 131°
2026-05-03 21:19 29.68117 -89.80192 15867 ft 394 kts 131°
2026-05-03 21:20 29.66364 -89.77752 16441 ft 398 kts 131°
2026-05-03 21:20 29.64592 -89.75288 17019 ft 401 kts 131°
2026-05-03 21:20 29.62808 -89.72805 17587 ft 405 kts 131°
2026-05-03 21:20 29.61008 -89.70300 18188 ft 408 kts 131°
2026-05-03 21:21 29.59189 -89.67774 18721 ft 412 kts 131°
2026-05-03 21:21 29.57351 -89.65227 19192 ft 417 kts 132°
2026-05-03 21:21 29.55487 -89.62648 19634 ft 422 kts 132°
2026-05-03 21:21 29.53596 -89.60036 20073 ft 428 kts 132°
2026-05-03 21:22 29.51681 -89.57389 20472 ft 434 kts 133°
2026-05-03 21:22 29.49736 -89.54700 20886 ft 440 kts 133°
2026-05-03 21:22 29.47770 -89.51987 21313 ft 445 kts 133°
2026-05-03 21:22 29.45780 -89.49242 21744 ft 450 kts 133°
2026-05-03 21:23 29.43769 -89.46468 22146 ft 455 kts 133°
2026-05-03 21:23 29.41736 -89.43668 22551 ft 459 kts 134°
2026-05-03 21:23 29.39682 -89.40842 22953 ft 464 kts 134°
2026-05-03 21:23 29.37604 -89.37985 23354 ft 468 kts 134°
2026-05-03 21:24 29.35510 -89.35107 23747 ft 473 kts 134°
2026-05-03 21:24 29.33396 -89.32195 24084 ft 477 kts 134°
2026-05-03 21:24 29.31270 -89.29264 24453 ft 480 kts 134°
2026-05-03 21:24 29.29129 -89.26316 24821 ft 483 kts 134°
2026-05-03 21:25 29.26971 -89.23354 25186 ft 485 kts 134°
2026-05-03 21:25 29.24798 -89.20385 25583 ft 487 kts 135°
2026-05-03 21:25 29.22615 -89.17405 25927 ft 489 kts 135°
2026-05-03 21:25 29.20427 -89.14415 26300 ft 491 kts 135°
2026-05-03 21:26 29.18227 -89.11403 26659 ft 494 kts 135°
2026-05-03 21:26 29.16021 -89.08381 27013 ft 497 kts 135°
2026-05-03 21:26 29.13826 -89.05378 27360 ft 500 kts 135°
2026-05-03 21:26 29.11591 -89.02327 27717 ft 502 kts 135°
2026-05-03 21:27 29.09339 -88.99259 28077 ft 505 kts 135°
2026-05-03 21:27 29.07073 -88.96174 28437 ft 508 kts 135°
2026-05-03 21:27 29.04796 -88.93076 28784 ft 510 kts 135°
2026-05-03 21:27 29.02510 -88.89963 29121 ft 513 kts 135°
2026-05-03 21:28 29.00212 -88.86834 29460 ft 516 kts 135°
2026-05-03 21:28 28.97896 -88.83689 29805 ft 518 kts 136°
2026-05-03 21:28 28.95575 -88.80541 30195 ft 519 kts 136°
2026-05-03 21:28 28.93251 -88.77388 30574 ft 518 kts 136°
2026-05-03 21:29 28.91719 -88.75306 30841 ft 518 kts 136°
2026-05-03 21:29 28.89405 -88.72164 31256 ft 517 kts 136°
2026-05-03 21:29 28.87090 -88.69026 31671 ft 516 kts 136°
2026-05-03 21:29 28.84788 -88.65911 32312 ft 509 kts 137°
2026-05-03 21:30 28.82528 -88.62847 33055 ft 501 kts 137°
2026-05-03 21:30 28.80290 -88.59814 33609 ft 498 kts 137°
2026-05-03 21:30 28.78058 -88.56800 34103 ft 497 kts 137°
2026-05-03 21:30 28.75828 -88.53799 34486 ft 496 kts 137°
2026-05-03 21:31 28.73600 -88.50804 34829 ft 495 kts 138°
2026-05-03 21:31 28.71371 -88.47807 35156 ft 495 kts 138°
2026-05-03 21:31 28.69147 -88.44813 35505 ft 494 kts 139°
2026-05-03 21:31 28.66930 -88.41831 35858 ft 493 kts 139°
2026-05-03 21:32 28.64712 -88.38849 36120 ft 493 kts 139°
2026-05-03 21:32 28.62492 -88.35873 36395 ft 494 kts 140°
2026-05-03 21:32 28.60270 -88.32896 36674 ft 494 kts 140°
2026-05-03 21:32 28.58047 -88.29913 36968 ft 494 kts 140°
2026-05-03 21:33 28.55823 -88.26931 37120 ft 495 kts 140°
2026-05-03 21:33 28.53594 -88.23947 37155 ft 495 kts 140°
2026-05-03 21:33 28.49133 -88.17992 37147 ft 494 kts 140°
2026-05-03 21:34 28.44675 -88.12038 37147 ft 494 kts 140°
2026-05-03 21:34 28.40274 -88.06023 37145 ft 499 kts 135°
2026-05-03 21:35 28.36952 -87.98951 37140 ft 518 kts 116°
2026-05-03 21:35 28.34706 -87.91146 37106 ft 520 kts 114°
2026-05-03 21:36 28.32448 -87.83331 37136 ft 521 kts 115°
2026-05-03 21:36 28.30173 -87.75518 37143 ft 521 kts 115°
2026-05-03 21:37 28.27901 -87.67706 37144 ft 522 kts 115°
2026-05-03 21:37 28.25629 -87.59894 37146 ft 522 kts 115°
2026-05-03 21:38 28.23360 -87.52077 37150 ft 522 kts 115°
2026-05-03 21:38 28.21084 -87.44271 37151 ft 521 kts 115°
2026-05-03 21:39 28.18799 -87.36470 37151 ft 521 kts 115°
2026-05-03 21:39 28.16507 -87.28673 37135 ft 521 kts 116°
2026-05-03 21:40 28.14209 -87.20876 37137 ft 522 kts 116°
2026-05-03 21:40 28.11906 -87.13082 37141 ft 522 kts 116°
2026-05-03 21:41 28.09601 -87.05286 37138 ft 522 kts 116°
2026-05-03 21:41 28.07305 -86.97545 37141 ft 522 kts 116°
2026-05-03 21:42 28.04995 -86.89755 37141 ft 522 kts 116°
2026-05-03 21:42 28.02673 -86.81975 37104 ft 521 kts 117°
2026-05-03 21:43 28.00345 -86.74201 37104 ft 522 kts 116°
2026-05-03 21:43 27.98077 -86.66388 37117 ft 523 kts 116°
2026-05-03 21:44 27.95840 -86.58548 37122 ft 524 kts 116°
2026-05-03 21:44 27.93574 -86.50712 37096 ft 525 kts 116°
2026-05-03 21:45 27.91273 -86.42848 37096 ft 529 kts 116°
2026-05-03 21:45 27.88970 -86.34935 37101 ft 531 kts 116°
2026-05-03 21:46 27.86655 -86.26992 37106 ft 533 kts 116°
2026-05-03 21:46 27.84326 -86.19041 37119 ft 533 kts 116°
2026-05-03 21:47 27.81980 -86.11091 37122 ft 534 kts 117°
2026-05-03 21:47 27.79638 -86.03136 37135 ft 534 kts 117°
2026-05-03 21:48 27.77311 -85.95237 37132 ft 534 kts 117°
2026-05-03 21:48 27.74963 -85.87290 37137 ft 534 kts 117°
2026-05-03 21:49 27.72591 -85.79295 37136 ft 534 kts 117°
2026-05-03 21:49 27.70242 -85.71411 37133 ft 534 kts 117°
2026-05-03 21:50 27.67876 -85.63476 37134 ft 534 kts 117°
2026-05-03 21:50 27.65513 -85.55536 37131 ft 534 kts 117°
2026-05-03 21:51 27.63137 -85.47606 37124 ft 534 kts 117°
2026-05-03 21:51 27.60750 -85.39686 37119 ft 534 kts 117°
2026-05-03 21:52 27.58680 -85.31610 37122 ft 543 kts 108°
2026-05-03 21:52 27.57258 -85.23249 37118 ft 543 kts 108°
2026-05-03 21:53 27.55809 -85.14907 37118 ft 543 kts 108°
2026-05-03 21:53 27.54334 -85.06564 37114 ft 543 kts 108°
2026-05-03 21:54 27.52857 -84.98230 37111 ft 543 kts 108°
2026-05-03 21:54 27.51390 -84.89891 37117 ft 543 kts 108°
2026-05-03 21:55 27.49918 -84.81549 37109 ft 543 kts 108°
2026-05-03 21:55 27.48441 -84.73211 37109 ft 543 kts 108°
2026-05-03 21:56 27.46962 -84.64875 37082 ft 543 kts 108°
2026-05-03 21:56 27.45473 -84.56547 37113 ft 542 kts 109°
2026-05-03 21:57 27.43978 -84.48244 37122 ft 541 kts 109°
2026-05-03 21:57 27.42501 -84.39943 37117 ft 543 kts 105°
2026-05-03 21:58 27.42026 -84.31387 37108 ft 550 kts 96°
2026-05-03 21:58 27.41804 -84.22791 37100 ft 549 kts 97°
2026-05-03 21:59 27.41558 -84.14205 37104 ft 549 kts 97°
2026-05-03 21:59 27.41311 -84.05630 37098 ft 548 kts 97°
2026-05-03 22:00 27.41062 -83.97059 37099 ft 548 kts 97°
2026-05-03 22:00 27.40807 -83.88494 37086 ft 547 kts 97°
2026-05-03 22:01 27.40548 -83.79939 37093 ft 547 kts 97°
2026-05-03 22:01 27.40283 -83.71395 37089 ft 546 kts 97°
2026-05-03 22:02 27.40013 -83.62850 37089 ft 546 kts 97°
2026-05-03 22:02 27.39737 -83.54314 37083 ft 546 kts 97°
2026-05-03 22:03 27.39452 -83.45775 37078 ft 546 kts 97°
2026-05-03 22:03 27.39169 -83.37244 37080 ft 545 kts 97°
2026-05-03 22:04 27.38889 -83.28715 37080 ft 546 kts 97°
2026-05-03 22:04 27.38600 -83.20188 37081 ft 546 kts 97°
2026-05-03 22:05 27.37840 -83.11768 37064 ft 534 kts 110°
2026-05-03 22:05 27.35799 -83.03831 37071 ft 527 kts 115°
2026-05-03 22:06 27.34743 -82.99880 36769 ft 530 kts 115°
2026-05-03 22:06 27.33690 -82.95922 36440 ft 526 kts 115°
2026-05-03 22:06 27.32649 -82.91987 36201 ft 521 kts 115°
2026-05-03 22:06 27.31618 -82.88087 35561 ft 524 kts 115°
2026-05-03 22:07 27.30559 -82.84145 34970 ft 525 kts 115°
2026-05-03 22:07 27.29508 -82.80252 34529 ft 515 kts 117°
2026-05-03 22:07 27.28229 -82.76545 33499 ft 504 kts 124°
2026-05-03 22:07 27.26689 -82.73034 32370 ft 499 kts 125°
2026-05-03 22:08 27.25145 -82.69542 31256 ft 498 kts 123°
2026-05-03 22:08 27.23610 -82.66066 30271 ft 494 kts 122°
2026-05-03 22:08 27.22341 -82.62515 29427 ft 491 kts 108°
2026-05-03 22:08 27.21924 -82.58725 28545 ft 490 kts 90°
2026-05-03 22:09 27.22270 -82.54894 28194 ft 499 kts 84°
2026-05-03 22:09 27.22735 -82.50956 28010 ft 517 kts 84°
2026-05-03 22:10 27.24203 -82.38687 28032 ft 534 kts 84°
2026-05-03 22:10 27.25230 -82.30485 28050 ft 534 kts 84°
2026-05-03 22:11 27.26179 -82.22222 28068 ft 532 kts 91°
2026-05-03 22:11 27.25893 -82.18117 28057 ft 524 kts 106°
2026-05-03 22:11 27.24816 -82.14247 28038 ft 514 kts 120°
2026-05-03 22:11 27.23046 -82.10822 28067 ft 502 kts 134°
2026-05-03 22:12 27.20768 -82.07905 28071 ft 495 kts 141°
2026-05-03 22:12 27.18233 -82.05372 28066 ft 482 kts 153°
2026-05-03 22:12 27.15378 -82.03480 28071 ft 476 kts 158°
2026-05-03 22:13 27.09711 -81.99566 28070 ft 477 kts 158°
2026-05-03 22:13 27.03816 -81.96243 28074 ft 474 kts 162°
2026-05-03 22:14 26.97874 -81.93052 28074 ft 474 kts 162°
2026-05-03 22:14 26.92888 -81.90383 28051 ft 474 kts 162°
2026-05-03 22:15 26.86919 -81.87166 28070 ft 477 kts 162°
2026-05-03 22:15 26.80942 -81.83929 28068 ft 477 kts 162°
2026-05-03 22:16 26.75347 -81.79759 27990 ft 496 kts 143°
2026-05-03 22:16 26.72930 -81.76982 27732 ft 498 kts 140°
2026-05-03 22:16 26.70541 -81.74189 27208 ft 496 kts 140°
2026-05-03 22:16 26.68165 -81.71413 26494 ft 491 kts 140°
2026-05-03 22:17 26.65818 -81.68674 25808 ft 486 kts 140°
2026-05-03 22:17 26.63501 -81.65952 25132 ft 483 kts 138°
2026-05-03 22:17 26.61409 -81.63003 24437 ft 483 kts 133°
2026-05-03 22:17 26.59398 -81.60020 23775 ft 479 kts 133°
2026-05-03 22:18 26.57405 -81.57058 23082 ft 474 kts 133°
2026-05-03 22:18 26.55446 -81.54140 22416 ft 468 kts 133°
2026-05-03 22:18 26.53496 -81.51244 21716 ft 463 kts 133°
2026-05-03 22:18 26.51573 -81.48388 21086 ft 458 kts 133°
2026-05-03 22:19 26.49667 -81.45559 20434 ft 454 kts 133°
2026-05-03 22:19 26.47776 -81.42758 19790 ft 451 kts 133°
2026-05-03 22:19 26.45893 -81.39973 19165 ft 448 kts 132°
2026-05-03 22:19 26.44021 -81.37207 18542 ft 445 kts 132°
2026-05-03 22:20 26.42169 -81.34472 18088 ft 438 kts 132°
2026-05-03 22:20 26.40337 -81.31793 17606 ft 431 kts 133°
2026-05-03 22:20 26.38471 -81.29204 17077 ft 426 kts 135°
2026-05-03 22:20 26.36592 -81.26697 16309 ft 416 kts 135°
2026-05-03 22:21 26.34731 -81.24256 15429 ft 409 kts 135°
2026-05-03 22:21 26.32879 -81.21845 14881 ft 410 kts 135°
2026-05-03 22:21 26.31055 -81.19463 14309 ft 408 kts 135°
2026-05-03 22:21 26.29231 -81.17057 13712 ft 405 kts 134°
2026-05-03 22:22 26.27428 -81.14662 13192 ft 403 kts 134°
2026-05-03 22:22 26.25634 -81.12286 12751 ft 400 kts 134°
2026-05-03 22:22 26.23850 -81.09932 11973 ft 394 kts 134°
2026-05-03 22:22 26.22091 -81.07617 11438 ft 389 kts 134°
2026-05-03 22:23 26.20349 -81.05334 10891 ft 386 kts 134°
2026-05-03 22:23 26.18617 -81.03071 10599 ft 382 kts 134°
2026-05-03 22:23 26.16893 -81.00814 10498 ft 379 kts 134°
2026-05-03 22:23 26.15354 -80.98500 10327 ft 367 kts 122°
2026-05-03 22:24 26.14398 -80.95906 10059 ft 361 kts 105°
2026-05-03 22:24 26.13943 -80.93211 10013 ft 346 kts 102°
2026-05-03 22:24 26.13527 -80.90626 9535 ft 337 kts 102°
2026-05-03 22:24 26.13098 -80.88046 8648 ft 340 kts 102°
2026-05-03 22:25 26.12666 -80.85485 8090 ft 332 kts 102°
2026-05-03 22:25 26.12247 -80.83008 7648 ft 319 kts 102°
2026-05-03 22:25 26.11846 -80.80628 7242 ft 307 kts 102°
2026-05-03 22:25 26.11460 -80.78332 6903 ft 294 kts 102°
2026-05-03 22:26 26.11090 -80.76142 6800 ft 286 kts 102°
2026-05-03 22:26 26.10725 -80.73980 6654 ft 284 kts 102°
2026-05-03 22:26 26.10361 -80.71822 6512 ft 283 kts 102°
2026-05-03 22:26 26.10001 -80.69679 6359 ft 281 kts 102°
2026-05-03 22:27 26.09642 -80.67546 6208 ft 280 kts 102°
2026-05-03 22:27 26.09291 -80.65418 6064 ft 279 kts 102°
2026-05-03 22:27 26.08943 -80.63298 5912 ft 278 kts 102°
2026-05-03 22:27 26.08587 -80.61191 5764 ft 274 kts 102°
2026-05-03 22:28 26.08235 -80.59133 5610 ft 267 kts 102°
2026-05-03 22:28 26.07894 -80.57144 5458 ft 255 kts 102°
2026-05-03 22:28 26.07571 -80.55257 5303 ft 242 kts 102°
2026-05-03 22:28 26.07267 -80.53469 5162 ft 229 kts 102°
2026-05-03 22:29 26.06977 -80.51765 5063 ft 220 kts 102°
2026-05-03 22:29 26.06791 -80.50115 5031 ft 212 kts 95°
2026-05-03 22:29 26.06742 -80.48470 5037 ft 213 kts 92°
2026-05-03 22:29 26.06731 -80.46814 5030 ft 215 kts 92°
2026-05-03 22:30 26.06726 -80.45153 4953 ft 215 kts 91°
2026-05-03 22:30 26.06720 -80.43481 4714 ft 218 kts 92°
2026-05-03 22:30 26.06713 -80.41807 4432 ft 214 kts 91°
2026-05-03 22:30 26.06707 -80.40179 4156 ft 208 kts 90°
2026-05-03 22:31 26.06700 -80.38596 3899 ft 202 kts 91°
2026-05-03 22:31 26.06694 -80.37087 3652 ft 189 kts 90°
2026-05-03 22:31 26.06688 -80.35658 3412 ft 183 kts 90°
2026-05-03 22:31 26.06682 -80.34271 3182 ft 180 kts 90°
2026-05-03 22:32 26.06675 -80.32879 2946 ft 177 kts 90°
2026-05-03 22:32 26.06669 -80.31524 2715 ft 174 kts 90°
2026-05-03 22:32 26.06663 -80.30181 2489 ft 173 kts 90°
2026-05-03 22:32 26.06657 -80.28848 2273 ft 172 kts 89°
2026-05-03 22:33 26.06650 -80.27542 2043 ft 170 kts 89°
2026-05-03 22:33 26.06644 -80.26234 1823 ft 169 kts 89°
2026-05-03 22:33 26.06637 -80.24935 1601 ft 168 kts 89°
2026-05-03 22:33 26.06630 -80.23641 1384 ft 167 kts 89°
2026-05-03 22:34 26.06624 -80.22356 1168 ft 166 kts 88°
2026-05-03 22:34 26.06617 -80.21081 948 ft 166 kts 88°
2026-05-03 22:34 26.06610 -80.19842 744 ft 159 kts 88°
2026-05-03 22:34 26.06604 -80.18708 566 ft 147 kts 88°
2026-05-03 22:35 26.06598 -80.17603 370 ft 142 kts 87°
2026-05-03 22:35 26.06591 -80.16517 187 ft 140 kts 87°
2026-05-03 22:35 26.06588 -80.15442 26 ft 133 kts 88°
2026-05-03 22:35 26.06581 -80.14676 32 ft 56 kts 90°
2026-05-03 22:36 26.06581 -80.14484 43 ft 5 kts 90°
2026-05-03 22:36 26.06588 -80.14328 52 ft 19 kts 79°
2026-05-03 22:36 26.06659 -80.14240 51 ft 15 kts 339°
2026-05-03 22:36 26.06678 -80.14289 49 ft 2 kts 270°
2026-05-03 22:37 26.06677 -80.14301 49 ft 2 kts 269°
2026-05-03 22:37 26.06677 -80.14314 49 ft 4 kts 270°
2026-05-03 22:37 26.06677 -80.14370 49 ft 11 kts 269°
2026-05-03 22:37 26.06677 -80.14488 44 ft 17 kts 270°
2026-05-03 22:38 26.06676 -80.14644 35 ft 21 kts 270°
2026-05-03 22:38 26.06678 -80.14813 22 ft 21 kts 274°
2026-05-03 22:38 26.06730 -80.14917 17 ft 15 kts 349°
2026-05-03 22:38 26.06767 -80.14826 15 ft 16 kts 90°
2026-05-03 22:39 26.06766 -80.14695 15 ft 18 kts 90°
2026-05-03 22:39 26.06766 -80.14563 15 ft 17 kts 90°
2026-05-03 22:39 26.06769 -80.14445 16 ft 13 kts 88°
2026-05-03 22:39 26.06771 -80.14332 15 ft 15 kts 90°
2026-05-03 22:40 26.06806 -80.14240 16 ft 11 kts 57°
2026-05-03 22:40 26.06825 -80.14159 16 ft 10 kts 79°
2026-05-03 22:40 26.06863 -80.14134 16 ft 4 kts 47°
2026-05-03 22:40 26.06889 -80.14104 16 ft 7 kts 24°
2026-05-03 22:41 26.06920 -80.14135 18 ft 6 kts 297°
2026-05-03 22:41 26.06925 -80.14145 16 ft 0 kts 298°